Tracking 30101 objects as of 14-Dec-2024
HD Live streaming from Space Station
objects crossing your sky now

ATLAS 5 CENTAUR R/B

Track ATLAS 5 CENTAUR R/B now!


NORAD ID: 53356
Int'l Code: 2022-092B
Perigee: 5,206.2 km
Apogee: 35,357.6 km
Inclination: 15.0 °
Period: 721.7 minutes
Semi major axis: 26652 km
RCS: Unknown
Launch date: August 4, 2022
Source: United States (US)
Launch site: AIR FORCE EASTERN TEST RANGE (AFETR)

Note: This is a ROCKET BODY
Your satellite tracking list
Your tracking list is empty




NASA's NSSDC Master Catalog

Two Line Element Set (TLE):
1 53356U 22092B   24346.95817504  .00000028  00000-0  00000-0 0  9995
2 53356  15.0218 190.0780 5656317  46.3380 348.6489  1.99520241 17174
Source of the keplerian elements: AFSPC